This is the latest recevied weather packets stored in our database for station/object N0FDH. If no packets are shown the sender has not sent any weather packets the latest 1 day(s).
| Time | Temp. | Humidity | Pressure | Rain* | Wind** | Luminosity | Snow |
|---|---|---|---|---|---|---|---|
| 1778080725 | 2.78° C | 58% | 1015.4 hPa | 0 mm | - | 133 W/m² | - |
| 1778080119 | 2.78° C | 59% | 1015.2 hPa | 0 mm | - | 133 W/m² | - |
| 1778079512 | 2.78° C | 57% | 1015.3 hPa | 0 mm | - | 140 W/m² | - |
| 1778077696 | 2.78° C | 57% | 1014.9 hPa | 0 mm | - | 136 W/m² | - |
| 1778075274 | 2.78° C | 55% | 1014.9 hPa | 0 mm | - | 120 W/m² | - |
| 1778074970 | 2.78° C | 54% | 1014.8 hPa | 0 mm | - | 118 W/m² | - |
| 1778074364 | 2.78° C | 59% | 1014.7 hPa | 0 mm | - | 103 W/m² | - |
| 1778074061 | 2.78° C | 60% | 1014.7 hPa | 0 mm | - | 102 W/m² | - |
| 1778073456 | 2.78° C | 55% | 1014.7 hPa | 0 mm | - | 86 W/m² | - |
| 1778072244 | 2.22° C | 55% | 1014.6 hPa | 0 mm | - | 78 W/m² | - |
| 1778071337 | 2.22° C | 60% | 1014.4 hPa | 0 mm | - | 72 W/m² | - |
| 1778071034 | 2.22° C | 60% | 1014.5 hPa | 0 mm | - | 63 W/m² | - |
| 1778070127 | 2.22° C | 59% | 1014.3 hPa | 0 mm | - | 53 W/m² | - |
| 1778068614 | 1.67° C | 61% | 1014.2 hPa | 0 mm | - | 30 W/m² | - |
| 1778068312 | 2.22° C | 62% | 1014.1 hPa | 0 mm | - | 25 W/m² | - |
| 1778067102 | 2.22° C | 62% | 1014 hPa | 0 mm | - | 15 W/m² | - |
| 1778066496 | 2.22° C | 64% | 1013.8 hPa | 0 mm | - | 9 W/m² | - |
| 1778065891 | 2.22° C | 63% | 1013.5 hPa | 0 mm | - | 5 W/m² | - |
| 1778065588 | 2.22° C | 67% | 1013.3 hPa | 0 mm | - | 4 W/m² | - |
| 1778064982 | 2.22° C | 64% | 1013.2 hPa | 0 mm | - | 2 W/m² | - |
| 1778064377 | 2.22° C | 63% | 1013.3 hPa | 0 mm | - | 1 W/m² | - |
| 1778064074 | 2.22° C | 65% | 1013.3 hPa | 0 mm | - | 0 W/m² | - |
| 1778062257 | 2.22° C | 62% | 1013.6 hPa | 0 mm | - | 0 W/m² | - |
| 1778061653 | 2.22° C | 64% | 1013.5 hPa | 0 mm | - | 0 W/m² | - |
| 1778060141 | 2.22° C | 63% | 1013.1 hPa | 0 mm | - | 0 W/m² | - |
* Rain latest hour (hover to see other rain measurements)
** Current wind speed in m/s (hover to see current wind gust speed)